Hourly Data Report for November 16, 2019

All times are specified in Local Standard Time (LST). Add 1 hour to adjust for Daylight Saving Time where and when it is observed.

SATURNA ISLAND CS
BRITISH COLUMBIA
Current Station Operator: ECCC - MSC

48°47'02.067" N
123°02'41.082" W
24.40 m
1017101
71473
WEZ

Download Data

Hourly Data (November 2019)
Hourly Data Report for November 16, 2019
TIME Temp Definition
°C
Dew Point Definition
°C
Rel Hum Definition
%
Wind Dir Definition
10's deg

Wind Spd Definition
km/h
Visibility Definition
km
Stn Press Definition
kPa
Hmdx Definition


Wind Chill Definition


Weather Definition


00:00 9.7 8.0 89 24 14   102.16     LegendNANA
01:00 9.4 8.3 93 22 15   102.16     LegendNANA
02:00 9.8 8.7 93 22 17   102.23     LegendNANA
03:00 9.9 8.6 92 23 16   102.22     LegendNANA
04:00 9.6 8.6 93 23 16   102.20     LegendNANA
05:00 9.7 8.8 94 23 12   102.21     LegendNANA
06:00 9.6 8.5 93 22 19   102.18     LegendNANA
07:00 9.9 8.4 91 19 11   102.20     LegendNANA
08:00 10.0 8.3 89 16 16   102.19     LegendNANA
09:00 10.1 8.3 88 19 12   102.18     LegendNANA
10:00 10.4 8.5 88 18 10   102.16     LegendNANA
11:00 10.2 8.8 91 19 7   102.16     LegendNANA
12:00 10.3 8.8 91 15 19   102.04     LegendNANA
13:00 10.7 8.6 87 14 18   101.96     LegendNANA
14:00 11.4 8.0 79 17 21   101.90     LegendNANA
15:00 11.2 7.9 80 17 19   101.91     LegendNANA
16:00 11.3 7.5 78 18 15   101.90     LegendNANA
17:00 11.0 8.1 82 19 20   101.89     LegendNANA
18:00 10.4 8.7 89 18 27   101.83     LegendNANA
19:00 10.2 8.9 91 17 32   101.73     LegendNANA
20:00 10.5 8.8 89 16 20   101.72     LegendNANA
21:00 10.9 8.7 86 17 42   101.64     LegendNANA
22:00 10.7 8.9 88 17 38   101.64     LegendNANA
23:00 11.1 8.8 86 16 39   101.53     LegendNANA

Notes on Data Quality.

Legend

  • E = Estimated
  • M = Missing
  • NA = Not Available
Date modified: